Regional Weather Roundup
Issued by NWS Jackson, KY

Home | Current Version | Previous Version | Graphics & Text | Print | Product List | Glossary On
Versions: 1 2 3 4 5 6 7 8 9 10 11 12 13 14 15 16 17 18 19 20 21 22 23 24 25 26 27 28 29 30 31 32 33 34 35 36 37 38 39 40 41 42 43 44 45 46 47 48 49 50
000
ASUS43 KJKL 230419
RWRJKL

EAST KENTUCKY HOURLY WEATHER ROUNDUP
NATIONAL WEATHER SERVICE JACKSON KY
1200 AM EDT SAT AUG 23 2014

NOTE: "FAIR" INDICATES FEW OR NO CLOUDS BELOW 12,000 FEET WITH
NO SIGNIFICANT WEATHER AND/OR OBSTRUCTIONS TO VISIBILITY.

* THESE REPORTS ARE NOT UNDER NWS QUALITY CONTROL AND MAY NOT
  REPORT WEATHER SUCH AS PRECIPITATION AND FOG.

KYZ079-080-083-085-087-088-110-112-115-119-120-230500
...EASTERN KENTUCKY...

CITY           SKY/WX    TMP DP  RH WIND       PRES   REMARKS
JACKSON        CLOUDY    71  69  93 CALM      30.05F FOG
LONDON         CLOUDY    78  72  81 CALM      30.05F
SOMERSET*      CLOUDY    75  73  94 CALM      30.05S
MONTICELLO*    CLOUDY    74  72  93 CALM      30.06R
WILLIAMSBURG*  CLEAR     73  73 100 CALM      30.06S
MIDDLESBORO*   CLOUDY    74  72  94 CALM      30.06F
HARLAN APT*    CLOUDY    72  72 100 MISG      30.07F
HAZARD APT*    MOCLDY    72  72 100 CALM      30.06
BLACK MTN*       N/A     66  66 100 NE1         N/A
PIKEVILLE APT* CLOUDY    70  70 100 SE5       30.07R
BIG SANDY*     LGT RAIN  72  71  98 SW5       30.05F
MOREHEAD APT*  CLOUDY    72  70  94 CALM      30.04F FOG
ASHLAND*         N/A    N/A N/A N/A CALM        N/A
$$

KYZ035-036-041-042-044-050-067-078-099-230500
...CENTRAL KENTUCKY...

CITY           SKY/WX    TMP DP  RH WIND       PRES   REMARKS
MT STERLING*   CLOUDY    72  72 100 CALM      30.04F
FLEMING/MASON* MOCLDY    72  70  94 SW5       30.03S FOG
DANVILLE*      LGT RAIN  72  70  94 CALM      30.05S
RICHMOND*      CLOUDY    72  70  94 NE3       30.04S
LEXINGTON      CLOUDY    75  72  90 S5        30.04S FOG
FRANKFORT      CLOUDY    72  70  93 SW3       30.02S
$$

KYZ091>093-OHZ055-061-077-WVZ005-015-034-035-042-230500
...SOUTHERN OHIO/WEST VIRGINIA...

CITY           SKY/WX    TMP DP  RH WIND       PRES   REMARKS
COVINGTON      PTCLDY    72  70  93 CALM      30.01S
COLUMBUS       PTCLDY    76  71  85 CALM      30.00R
DAYTON         PTCLDY    74  71  91 NW5       30.03S
WILMINGTON     CLEAR     74  71  91 NW3       30.02S
HUNTINGTON     LGT RAIN  71  71 100 SW7       30.01S
CHARLESTON     MOCLDY    73  71  93 SW6       30.01S
PINEVILLE*     CLOUDY    69  69 100 MISG      30.12F
BECKLEY        CLOUDY    67  65  93 SW7       30.09F
BLUEFIELD      CLOUDY    68  65  90 W7        30.13F
$$

VAZ002-007-008-TNZ017-027-036-066-071-230500
...SOUTHWEST VIRGINIA/EAST TENNESSEE...

CITY           SKY/WX    TMP DP  RH WIND       PRES   REMARKS
WISE*          CLOUDY    68  68 100 CALM      30.16S
JONESVILLE*      N/A     72  70  94 E5        30.09S
ABINGDON*      HVY RAIN  71  70  95 NW5       30.11F
BRISTOL        TSTM      72  69  90 NW13G18   30.10R FOG
KNOXVILLE      MOCLDY    79  71  76 CALM      30.04S
OAK RIDGE      PTCLDY    77  73  87 CALM      30.06S
CROSSVILLE     CLEAR     73  70  90 CALM      30.12R FOG
NASHVILLE      CLEAR     80  74  81 CALM      30.03S
$$

...KEY TO REMARKS...
VSB - VISIBILITY IN MILES
WCI - WIND CHILL INDEX
HX  - HEAT INDEX

$$


USA.gov is the U.S. government's official web portal to all federal, state and local government web resources and services.